Location: Melbourne
(37.8666°S, 145.1333°E)
Time: 04:43:11
(UTC+10:00)

Daily predictions for brighter satellites

Satellite Brightness Start Highest point End
(mag) Time Altitude Azimuth Time Altitude Azimuth Time Altitude Azimuth
CZ-4C R/B 3.7 04:43:29 35° S 04:43:29 35° S 04:47:44 10° SSE
USA 267 4.0 04:37:18 10° NNE 04:41:36 39° N 04:41:36 39° N
CZ-2C R/B 3.9 04:39:45 10° NE 04:44:00 32° ESE 04:46:15 22° SSE
Cosmos 1727 Rocket 4.1 04:40:14 10° N 04:46:24 73° E 04:52:41 10° S
CZ-3 R/B 3.3 04:40:40 41° WNW 04:46:32 55° NNW 04:53:40 10° ENE
Meteor 2-15 Rocket 4.4 04:50:21 80° NNE 04:50:41 85° E 04:56:52 10° S
Cosmos 540 Rocket 3.6 04:57:46 71° E 04:57:46 71° E 05:02:50 10° NNE
Cosmos 1339 Rocket 4.4 04:55:37 10° N 05:01:51 86° W 05:08:16 10° S
Cosmos 2263 Rocket 4.4 05:11:39 11° S 05:11:39 11° S 05:11:58 10° S
Cosmos 44 Rocket 3.8 05:09:51 50° S 05:09:51 50° S 05:13:45 10° SSE
Hubble Space Telescope 2.8 05:11:09 20° NNE 05:11:09 20° NNE 05:13:32 10° NE
Ariane Rocket 3.5 05:08:34 10° NNE 05:13:33 58° ESE 05:18:37 10° S
CZ-4 R/B 3.5 05:10:30 10° NE 05:13:59 27° ESE 05:17:34 10° SSE
ERS-2 4.2 05:13:01 10° NNE 05:14:20 21° NNE 05:14:20 21° NNE
MSX 4.3 05:12:50 10° NNE 05:18:29 61° ESE 05:24:10 10° S
IDEFIX/ARIANE 42P 2.5 05:15:07 10° NNE 05:20:23 87° WNW 05:23:47 23° SSW
Cosmos 1844 Rocket 2.5 05:23:11 29° NNW 05:26:09 74° WSW 05:31:51 10° SSE
Meteor 1-21 Rocket 4.3 05:21:08 10° NNW 05:27:01 62° W 05:32:57 10° S
Cosmos 1174 4.1 05:29:10 57° S 05:29:10 57° S 05:32:20 10° SSE
Cosmos 2285 Rocket 3.9 05:24:55 17° SSW 05:30:03 85° WNW 05:36:22 10° NNE
Cosmos 1766 Rocket 3.4 05:27:37 10° NNW 05:32:00 69° W 05:36:25 10° S
Gbstr 26 Del rocket 3.9 05:33:13 46° WSW 05:34:30 55° SSW 05:41:05 10° SE
Cosmos 1153 Rocket 4.5 05:28:54 10° SSW 05:35:04 59° W 05:41:14 10° N
PAYLOAD A 4.3 05:33:03 10° N 05:38:18 48° W 05:40:02 36° SW
Cosmos 1484 Rocket 4.0 05:36:33 10° NE 05:40:23 44° ESE 05:44:13 10° S
Cosmos 1743 Rocket 3.9 05:38:26 10° N 05:42:52 66° E 05:47:20 10° SSE
Cosmos 44 4.1 05:52:33 32° WSW 05:53:15 34° SW 05:58:04 10° SSE
Cosmos 1328 3.7 05:51:32 10° NNW 05:55:31 64° W 05:59:35 10° S
USA 32 4.3 05:51:02 10° NNW 05:56:04 46° W 06:01:11 10° S
Cosmos 1726 2.4 05:55:52 40° WSW 05:56:25 43° W 05:59:58 10° NNW
Cosmos 2061 Rocket 3.9 05:50:28 10° S 05:56:45 78° W 06:03:01 10° N
Cosmos 1300 2.6 05:54:44 17° SSW 05:57:40 62° W 06:01:29 10° N
Cosmos 1777 Rocket 4.4 05:53:14 10° N 05:58:29 67° ENE 06:03:48 10° SSE
Cosmos 2100 Rocket 4.0 05:52:32 10° SSW 05:58:40 61° W 06:04:45 10° N
Cosmos 2278 Rocket 2.3 05:53:47 10° NNW 05:59:28 81° ENE 06:05:14 10° SSE
ASTEX 1 3.9 05:54:50 10° NNE 05:59:41 62° E 06:04:35 10° S
EO 1 Del DPAF 3.1 05:58:08 10° S 06:02:03 71° WSW 06:05:54 10° NNW
Cosmos 1408 Rocket 4.2 05:58:22 10° NW 06:02:18 33° WSW 06:06:18 10° SSW
SJ-12 4.3 05:59:07 10° N 06:03:00 40° W 06:05:25 20° SW
Cosmos 1538 Rocket 4.3 05:58:07 10° SSW 06:03:23 71° ESE 06:08:37 10° NNE
Cosmos 1459 Rocket 4.1 06:02:02 10° SSW 06:08:18 56° W 06:14:31 10° NNW
SMAP 3.1 06:05:03 10° N 06:09:41 63° W 06:14:24 10° SSW
Cosmos 1725 Rocket 4.3 06:04:07 10° S 06:10:32 75° E 06:16:51 10° NNE
OAO 2 Rocket 3.7 06:07:21 22° W 06:10:33 57° N 06:15:38 10° ENE
Cosmos 1626 2.3 06:06:54 10° N 06:10:38 76° E 06:14:27 10° S
CSL-04 Debris 4.5 06:05:37 10° N 06:10:52 46° W 06:16:13 10° SSW
SKYMED 2 4.3 06:07:29 10° SSE 06:11:51 57° E 06:16:08 10° N
SL-08 R/B 4.5 06:05:40 10° S 06:11:52 89° W 06:18:06 10° N
IRS-1A Rocket 4.3 06:06:41 10° N 06:12:21 69° WNW 06:18:14 10° SSW
AQUARIUS 4.2 06:08:02 10° N 06:12:30 58° W 06:17:01 10° SSW
ISS -0.5 06:11:31 10° NNE 06:13:17 14° NE 06:15:04 10° E
CZ-2C R/B 4.0 06:09:07 10° S 06:13:43 46° WSW 06:18:12 10° NW
Cosmos 1607 4.1 06:08:24 10° NW 06:14:36 53° SW 06:20:44 10° SSE
GPS 2-04 Rocket1 3.4 06:11:51 16° NW 06:14:39 46° NNE 06:18:27 10° E
Meteor 1-27 4.4 06:08:54 10° S 06:14:49 82° E 06:20:41 10° N
Cosmos 2016 Rocket 4.0 06:08:26 10° SSW 06:14:52 71° W 06:21:12 10° N
Tiangong 2 2.1 06:13:41 23° SW 06:15:09 36° S 06:18:14 10° ESE
USA 116 3.7 06:12:08 10° S 06:15:42 53° WSW 06:19:42 10° NNW
SL-14 R/B 4.1 06:14:29 10° NW 06:18:09 30° WSW 06:21:50 10° SSW
COSMOS 2406 3.8 06:14:03 13° SW 06:18:38 37° WNW 06:23:49 10° N
Meteor 1-28 Rocket 3.1 06:14:58 10° S 06:18:52 82° WSW 06:22:43 10° NNW
Cosmos 968 Rocket 4.1 06:16:17 10° NW 06:20:55 33° WSW 06:25:36 10° S
Cosmos 292 Rocket 3.9 06:16:40 10° SSW 06:21:22 52° WNW 06:26:00 10° N
Cosmos 1455 3.3 06:17:34 10° S 06:21:25 48° E 06:25:13 10° NNE
CZ-2C R/B 3.4 06:18:23 10° NNW 06:22:15 24° W 06:25:39 12° SW
Shenzhou-11 Module 2.8 06:23:28 19° SW 06:25:22 41° SSE 06:28:22 10° E
Cosmos 1844 4.4 06:20:21 10° WNW 06:25:31 33° WSW 06:30:46 10° S
CZ-4 R/B 4.5 06:26:48 10° N 06:30:55 63° W 06:35:04 10° SSW
Cosmos 1328 Rocket 4.2 06:26:54 10° SSW 06:30:56 33° W 06:34:54 10° NNW
CZ-4C R/B 4.5 06:28:42 11° SW 06:31:14 13° SSW 06:34:07 10° S
ATLAS 3B R/B 2.6 06:25:02 10° NW 06:31:35 79° WSW 06:38:30 10° SSE
SPOT 3 Rocket 3.6 06:27:18 10° NNE 06:32:28 85° WNW 06:37:44 10° SSW
Cosmos 773 Rocket 3.9 06:28:33 10° SSW 06:33:45 81° WNW 06:38:54 10° NNE
Cosmos 1500 Rocket 4.0 06:31:42 10° NNW 06:35:54 41° WSW 06:40:12 10° S
Cosmos 2082 Rocket 3.2 06:30:59 10° S 06:36:32 48° ESE 06:41:59 10° NE
SeaSat 1 2.4 06:33:32 10° SSE 06:38:32 80° WSW 06:43:28 10° NNW
Cosmos 1151 Rocket 3.3 06:34:22 10° SSW 06:38:40 50° W 06:42:55 10° NNW
YAOGAN 1 3.0 06:35:48 10° N 06:39:56 43° W 06:44:09 10° SSW
Cosmos 1680 Rocket 4.4 06:35:50 10° S 06:40:59 52° ESE 06:46:04 10° NE
MOS 1 4.3 06:35:32 10° N 06:41:07 63° WNW 06:46:49 10° SSW
Cosmos 1833 Rocket 3.6 06:35:55 10° SSW 06:41:27 50° ESE 06:46:55 10° NE
SL-27 R/B 2.7 06:39:19 10° SSW 06:42:47 47° WNW 06:46:08 10° N
Cosmos 2228 Rocket 4.2 06:43:46 10° SSW 06:47:33 26° W 06:51:21 10° NW
Sich 1 4.2 06:43:55 10° NNE 06:48:10 49° E 06:52:25 10° SSE
CZ-4 R/B 2.7 06:45:45 10° NNW 06:48:58 22° W 06:52:17 10° SW
Hubble Space Telescope 3.2 06:49:00 10° NW 06:50:55 13° NNW 06:52:49 10° N
Cosmos 1666 Rocket 4.4 06:50:02 10° N 06:54:25 59° E 06:58:54 10° SSE
Cosmos 1703 4.1 06:53:00 10° NW 06:56:31 30° WSW 07:00:07 10° SSW
COSMO-SKYMED 1 3.0 06:55:43 10° S 06:59:50 40° WSW 07:03:55 10° NW
Cosmos 2297 3.7 06:54:17 10° NNW 06:59:59 75° WSW 07:05:49 10° SSE
Cosmos 1805 Rocket 3.6 06:55:51 10° NNW 07:00:18 75° W 07:04:48 10° S
BREEZE-M DEB (TANK) 4.1 06:46:09 10° WSW 07:00:19 55° SSE 07:04:13 10° E
Cosmos 1400 Rocket 3.6 06:56:28 10° N 07:00:21 58° E 07:04:23 10° SSE
USA 238 DEB 3.9 06:55:42 10° NW 07:02:50 65° SW 07:10:01 10° SSE
USA 238 3.9 06:55:48 10° NW 07:02:57 66° SW 07:10:08 10° SSE
